Wind_Speed
16 14 9 6 2 5 1 3 3 9 7 5 6 2 9 12 4 7 23 23 25 31 22 19 21 21 21 20 21 20 19 16 15 14 13 13 12 11 11 11 11 12 11 10 8 7 7 7 6
17 12 5 3 4 2 6 3 7 8 10 12 10 7 7 5 3 14 17 28 25 23 21 20 23 22 21 20 20 20 17 16 14 13 12 12 11 11 10 11 11 11 10 9 8 7 7 6 5
15 10 3 4 1 6 8 4 10 10 10 6 5 8 5 5 9 23 22 29 26 26 20 20 22 22 21 20 20 18 16 15 13 12 11 10 10 10 11 11 10 9 9 9 8 8 7 6 6
11 6 4 5 7 8 8 7 11 10 5 3 6 9 7 6 20 17 32 27 28 23 23 22 22 22 21 20 18 17 15 14 12 11 11 10 10 9 10 9 9 9 9 9 9 9 9 8 6
4 4 4 3 10 7 6 9 8 6 6 7 5 7 7 10 14 32 31 27 27 25 24 22 23 22 20 19 17 16 15 13 12 11 10 10 9 8 9 9 9 8 9 10 10 10 10 9 8
5 4 6 7 9 8 7 8 5 4 6 7 10 13 5 16 29 31 30 26 25 26 25 23 23 21 19 18 16 15 14 13 12 11 10 9 9 8 8 7 7 8 8 9 10 10 10 10 9
9 6 5 3 6 6 6 6 2 5 7 6 15 11 12 21 28 30 29 26 25 25 25 23 22 19 19 16 15 14 13 12 11 11 10 9 9 8 7 7 7 7 7 8 8 8 8 8 8
6 5 1 1 4 11 7 5 5 3 7 14 15 8 14 23 29 30 28 25 24 25 24 24 22 19 17 15 14 13 12 11 10 9 9 8 7 7 6 7 6 7 6 7 8 7 7 6 7
4 6 5 8 0 7 10 7 5 6 12 7 3 10 24 31 29 29 27 25 24 24 24 24 23 19 17 15 13 12 11 10 9 7 7 5 5 4 4 4 6 6 5 6 6 6 6 4 8
8 8 5 5 5 6 9 6 9 7 12 12 9 17 30 31 29 29 27 26 25 25 26 25 23 20 18 16 14 11 10 8 7 6 5 4 4 4 4 4 6 5 3 4 3 4 5 6 7
10 10 7 6 6 4 8 8 9 7 11 14 14 22 26 30 28 28 27 27 27 27 26 25 22 20 18 16 14 12 11 9 8 7 5 3 2 2 2 4 4 3 2 3 2 0 3 6 8
9 12 7 2 3 2 3 8 9 10 7 13 17 23 25 25 25 29 28 28 28 27 26 25 23 21 19 16 15 12 11 10 8 7 6 4 3 2 1 2 2 2 2 2 1 7 4 2 4
17 9 6 9 8 7 5 7 4 10 10 16 19 23 25 22 25 27 26 26 26 27 26 24 23 21 19 16 14 13 12 11 9 8 7 5 3 1 1 2 1 1 1 2 1 3 3 1 1
7 15 10 10 11 10 10 9 10 11 12 17 21 24 24 24 27 26 26 27 27 26 26 24 23 21 19 18 14 13 12 11 10 9 8 7 5 3 1 2 1 1 1 1 3 2 3 2 2
11 11 12 14 12 9 9 11 14 8 15 18 21 22 23 24 27 27 28 28 28 27 25 25 23 22 21 19 16 14 13 12 11 11 10 8 7 5 3 0 1 1 1 3 1 1 3 3 4
15 17 14 17 17 13 13 10 18 15 18 19 21 21 23 25 28 28 28 27 27 26 26 25 24 23 22 19 17 16 14 13 12 12 11 10 9 8 5 2 2 1 0 1 1 2 2 3 3
13 14 19 13 12 9 15 13 8 16 19 19 20 22 22 22 25 29 29 28 27 26 26 25 24 24 23 20 18 17 15 15 14 13 13 11 10 9 8 5 3 1 1 1 1 1 1 3 2
18 18 17 17 13 14 14 16 4 13 18 18 19 20 21 22 25 31 31 29 27 26 25 25 25 24 23 20 19 17 17 16 15 15 14 12 11 10 8 8 5 3 2 1 2 1 1 0 1
18 19 19 17 15 12 14 13 13 14 17 18 19 20 22 23 23 29 31 30 28 27 27 27 27 26 25 24 23 21 20 18 17 16 15 14 12 10 11 10 7 6 4 1 3 2 2 2 2
21 19 20 15 10 8 13 12 11 10 16 18 20 22 23 21 21 25 30 31 31 30 29 28 28 28 28 25 23 21 20 19 18 17 16 15 14 13 12 12 8 6 4 3 3 3 1 1 3
23 24 21 17 12 15 15 18 16 10 13 17 19 19 21 23 23 23 28 32 32 32 32 32 30 28 26 24 22 19 18 17 18 20 18 16 14 13 12 10 9 8 6 5 4 4 3 1 5
24 24 20 19 16 15 15 15 18 20 17 19 19 21 21 23 22 22 25 31 34 35 33 32 31 29 26 26 24 24 23 22 21 21 19 16 15 14 12 11 11 11 7 5 4 5 4 4 6
21 18 17 20 17 18 22 14 16 13 18 20 21 21 22 23 25 25 25 35 36 33 33 32 31 31 29 28 26 25 23 22 20 20 19 20 16 16 14 13 13 12 10 8 6 6 7 7 6
15 16 13 16 17 20 24 20 19 19 19 19 18 19 22 24 25 26 33 32 32 32 31 31 31 32 32 31 31 28 26 24 22 20 20 21 21 19 18 16 15 14 12 11 9 9 10 9 7
22 17 9 11 15 19 21 19 19 11 21 20 18 19 20 23 23 24 25 26 32 35 35 33 32 32 34 34 32 33 31 27 24 22 22 18 20 21 21 20 18 16 16 14 12 11 11 12 11
27 23 10 16 14 16 16 16 22 24 22 11 20 18 20 21 23 24 26 30 35 38 39 37 35 33 34 35 35 33 33 31 29 27 24 22 21 19 19 21 21 20 18 16 14 13 13 13 13
24 25 27 4 3 8 16 19 16 10 18 25 22 18 17 20 22 25 26 32 35 37 38 38 37 38 38 38 36 36 35 35 32 30 28 27 22 20 20 22 23 22 20 18 17 16 15 15 14
21 25 21 14 15 18 11 19 12 21 21 19 22 21 18 20 22 22 23 30 36 39 41 42 42 41 41 39 37 38 38 37 37 32 32 29 27 25 21 22 23 23 22 20 20 18 17 17 16
22 16 22 18 17 11 9 11 15 16 16 22 21 20 20 19 21 21 22 29 34 34 35 40 40 40 39 40 40 39 38 38 36 36 36 34 30 28 28 26 24 25 24 23 22 22 20 19 18
28 24 27 14 23 18 14 6 4 7 14 17 17 18 17 17 17 17 18 21 27 33 36 39 41 41 43 43 42 42 39 38 38 37 37 35 34 33 32 30 28 27 27 26 25 24 24 23 22
Wind_Direction
161 165 172 188 257 226 66 83 81 101 111 97 138 135 87 45 20 93 144 138 142 146 149 157 151 148 149 147 145 148 146 138 132 125 117 110 104 95 88 84 82 82 87 90 91 100 102 95 91
160 157 184 252 262 175 83 105 111 71 89 105 101 124 89 78 55 120 143 146 144 147 147 153 154 152 149 147 147 148 139 137 134 123 116 111 105 97 91 87 83 82 83 86 89 90 93 93 91
159 174 234 250 246 42 89 102 101 109 129 134 109 46 81 93 139 140 149 147 146 145 145 153 153 154 149 149 150 147 139 139 131 120 114 109 101 94 91 89 82 78 83 83 83 85 85 85 79
163 199 227 250 59 73 44 112 124 124 125 138 114 86 85 67 137 143 148 146 146 151 145 152 148 150 149 148 147 143 142 139 131 122 115 110 99 93 92 84 82 81 87 85 85 87 86 84 84
197 255 249 241 80 68 78 114 147 152 129 151 174 101 96 118 139 143 149 153 149 148 146 150 151 150 149 148 147 146 145 142 132 121 115 109 102 97 91 82 76 88 87 87 85 83 82 84 88
217 254 249 78 74 85 93 127 151 96 122 115 117 124 106 135 140 149 153 154 151 146 149 152 156 150 151 151 150 149 147 142 130 125 120 115 109 100 92 90 91 92 92 89 86 82 77 79 82
270 277 12 29 81 114 103 128 139 111 131 137 137 117 129 144 149 153 154 154 151 151 150 154 157 156 155 156 150 149 148 142 135 133 128 121 113 103 100 102 100 97 93 85 76 68 66 71 63
280 275 209 150 77 85 116 150 98 125 80 121 144 148 160 154 156 155 156 156 155 158 157 158 161 162 160 158 155 155 151 147 144 143 141 135 118 105 86 89 105 106 98 91 77 62 62 69 82
250 248 159 110 81 111 149 142 109 103 137 150 145 147 145 155 158 159 160 159 159 165 165 166 166 167 166 164 167 160 157 160 155 150 152 114 138 110 104 145 126 116 112 110 93 78 65 86 75
229 277 111 70 57 20 156 164 137 156 151 141 108 112 144 156 164 167 168 166 168 173 172 172 174 173 172 173 177 173 173 172 173 169 165 146 123 123 125 135 130 138 137 145 95 63 80 49 76
209 257 131 122 23 33 147 174 156 144 173 165 144 146 154 161 171 173 176 174 178 176 175 176 178 179 180 180 182 185 185 188 193 190 183 172 165 122 134 137 140 157 126 165 128 122 39 68 48
241 236 252 158 330 49 160 157 177 180 118 155 151 159 161 172 176 176 179 178 181 179 179 181 182 185 188 189 192 192 192 196 198 196 199 200 202 150 139 108 127 151 154 158 5 62 49 107 68
224 240 232 243 257 265 266 202 177 188 130 146 153 165 169 176 177 179 181 180 183 183 183 184 185 189 191 194 198 201 202 203 205 205 208 203 207 189 184 134 126 132 145 113 40 14 23 352 121
193 231 245 250 246 244 235 211 200 188 155 154 161 173 176 181 182 180 184 185 188 188 187 187 190 192 192 196 197 204 205 208 210 210 212 219 211 204 188 183 174 204 244 315 70 46 328 27 38
239 241 236 233 231 229 227 234 211 180 169 169 172 175 182 185 187 190 190 191 191 191 189 190 193 195 196 199 201 205 210 211 211 211 213 215 218 224 236 345 265 302 314 328 38 9 7 87 78
223 230 239 228 212 217 210 231 187 182 180 180 177 176 182 190 191 194 194 195 194 193 193 194 195 198 200 202 204 206 211 212 213 211 213 216 224 228 236 209 255 266 225 343 202 348 359 59 99
214 230 213 183 191 193 209 240 96 173 189 187 183 180 184 188 196 194 196 197 196 198 196 197 197 200 201 203 204 207 209 211 211 212 214 217 223 230 240 254 239 254 307 59 152 255 318 84 127
212 221 241 213 188 218 218 238 160 172 200 195 188 187 189 192 197 195 198 198 200 197 199 198 198 200 199 201 204 208 210 212 212 214 217 221 228 228 239 253 252 256 259 118 191 28 83 58 354
239 224 227 219 226 242 247 251 244 178 207 202 190 195 197 199 192 197 199 199 200 201 201 201 200 199 197 199 202 205 208 208 212 218 218 223 226 231 234 248 227 232 257 153 183 189 154 169 323
231 232 231 240 207 248 248 239 243 199 206 208 195 200 204 199 191 195 200 200 201 200 201 202 203 201 200 202 204 206 207 210 213 216 218 224 232 235 236 231 228 226 241 216 189 216 207 22 162
225 229 232 237 218 239 259 259 247 217 205 210 207 209 205 201 195 193 196 201 201 203 202 203 204 203 202 203 202 203 206 213 214 215 216 224 223 221 219 221 222 218 226 233 195 198 221 120 173
226 217 239 245 240 247 214 257 229 218 209 207 211 207 210 196 202 196 197 198 203 204 203 206 205 205 203 198 199 201 206 208 212 212 216 218 213 213 217 227 214 211 224 246 206 214 216 224 180
233 230 218 237 243 246 247 249 252 210 219 214 215 209 209 205 202 199 198 201 203 202 203 205 205 205 205 201 204 201 210 213 212 216 216 215 215 216 220 219 217 216 224 225 218 201 209 214 230
216 221 226 228 233 241 237 240 239 234 215 223 213 212 207 208 201 203 202 202 201 201 203 204 203 204 204 203 206 207 208 215 211 211 215 220 221 218 218 217 214 217 223 225 225 212 210 213 216
196 194 189 209 217 237 226 236 234 241 225 214 221 210 207 201 206 202 200 198 202 200 202 204 203 204 204 207 208 211 213 213 215 210 213 215 218 219 214 214 212 217 219 219 220 215 215 210 212
196 202 211 210 216 227 214 236 239 228 239 241 227 236 195 201 204 204 200 200 201 201 199 200 200 204 205 208 210 211 213 216 220 220 220 217 220 217 219 217 216 213 215 217 214 217 218 215 211
194 213 215 244 201 272 223 220 256 243 224 218 226 217 215 197 199 203 202 202 202 202 201 199 198 202 202 207 208 211 213 215 220 223 220 222 220 219 216 215 213 213 213 213 211 216 218 214 211
204 207 212 229 241 238 227 231 229 209 211 217 215 216 207 197 198 202 204 205 206 206 203 202 202 201 203 206 209 213 213 214 216 216 218 219 218 216 214 213 212 210 214 212 210 217 218 215 216
200 201 213 223 233 221 236 237 215 230 214 214 211 210 205 199 197 200 203 208 209 208 206 207 207 206 204 206 208 210 214 216 217 216 217 217 217 213 212 208 209 212 211 211 211 217 218 216 218
204 205 200 213 212 241 281 272 109 235 215 215 215 209 210 205 210 209 207 204 206 207 208 207 207 208 208 206 206 208 209 211 213 214 217 215 215 214 213 211 210 211 215 214 215 217 220 218 218
Height
787 789 790 789 802 781 778 774 748 760 759 753 754 759 765 779 791 807 806 809 814 815 820 824 825 827 830 831 832 834 836 838 839 840 841 842 843 844 844 845 845 845 845 846 847 847 847 848 848
786 789 790 780 792 784 773 753 761 755 755 755 761 764 770 795 792 800 805 810 815 817 821 825 827 829 831 833 835 837 839 841 842 843 844 845 846 846 847 847 847 847 847 847 847 848 848 849 849
786 788 782 778 768 776 770 754 754 758 756 758 767 763 771 794 795 802 804 809 814 818 822 826 828 831 833 835 838 840 842 843 845 845 847 848 848 849 849 849 850 849 849 848 848 849 849 850 850
785 785 779 779 761 756 752 749 751 761 760 759 761 778 783 787 794 799 805 810 815 819 823 827 830 833 835 838 840 842 844 846 847 848 849 850 851 851 851 851 852 852 850 850 850 850 851 851 851
781 773 768 760 756 749 745 745 751 756 759 762 762 786 796 796 796 801 808 811 813 818 824 829 831 834 837 840 843 845 846 847 849 850 851 852 853 853 853 853 854 853 852 852 852 852 852 852 853
776 762 759 758 757 749 746 746 748 752 760 766 770 781 795 795 799 803 807 811 814 819 825 830 833 837 840 842 845 847 848 849 851 852 853 853 854 854 855 855 855 855 854 854 854 855 854 854 854
770 758 759 754 758 753 752 743 749 752 761 766 766 782 790 795 800 803 807 811 815 820 825 831 835 839 842 844 847 848 849 850 852 853 853 854 855 856 856 856 857 856 856 857 856 856 856 856 856
761 758 759 755 755 760 747 747 747 752 764 761 766 784 794 794 799 803 807 812 816 820 826 831 836 840 843 846 848 849 850 852 853 854 854 855 856 856 857 857 858 858 858 858 858 857 857 857 857
762 761 758 753 751 752 742 751 750 752 763 762 766 768 780 793 799 804 809 813 818 820 826 831 835 840 843 846 848 850 851 852 853 854 855 856 856 857 858 858 858 859 859 858 858 858 858 857 857
761 755 747 739 740 742 742 744 752 757 763 767 770 773 785 793 799 801 807 812 818 821 824 829 834 839 843 845 848 850 852 853 854 855 856 856 857 858 858 859 859 859 859 859 859 859 858 855 855
753 754 740 741 738 736 741 745 744 753 765 761 772 778 785 792 797 801 806 811 816 820 823 829 834 839 842 844 847 849 851 852 854 855 856 857 858 858 857 858 859 860 859 859 859 858 857 859 857
759 745 740 736 736 739 743 737 747 749 750 751 763 775 782 789 792 796 802 807 812 818 822 828 834 838 841 844 846 848 850 851 852 854 856 857 857 858 859 858 859 860 859 860 859 858 860 859 860
754 743 740 737 737 737 736 743 744 749 746 751 762 774 780 787 792 796 802 807 812 817 821 826 832 837 840 843 845 847 849 851 852 853 855 856 857 858 859 859 859 860 860 859 860 861 860 861 860
736 741 740 737 735 734 742 741 742 742 744 752 760 769 776 782 788 795 800 805 810 815 820 825 831 835 838 841 844 846 848 850 851 852 854 855 857 857 858 859 859 859 859 859 861 861 861 860 860
736 752 741 736 734 737 733 747 746 734 744 753 758 764 771 777 785 790 796 802 808 813 818 823 829 833 836 839 842 845 846 848 850 851 853 855 856 857 857 859 859 859 860 860 861 860 859 858 859
746 742 751 727 727 729 735 748 728 729 742 750 754 760 767 773 779 787 793 799 805 810 815 821 825 829 834 836 840 842 844 846 848 849 852 853 854 855 857 859 859 858 860 860 860 860 859 858 860
740 747 742 733 721 725 735 740 723 724 736 745 751 755 761 769 776 782 789 795 800 807 812 818 822 826 830 834 837 839 842 844 845 847 849 851 852 854 856 856 856 857 858 858 859 859 859 859 859
746 747 732 736 724 725 732 733 720 725 732 738 747 751 756 761 767 775 783 790 797 803 809 815 819 823 827 831 835 837 839 841 843 844 846 848 850 852 854 854 856 856 856 857 858 858 859 859 859
724 732 737 725 717 729 729 727 722 719 728 731 739 746 749 752 759 770 778 785 792 798 804 809 814 818 822 826 829 832 834 837 840 842 844 845 848 850 851 853 855 855 856 858 858 858 859 857 859
735 740 736 721 717 729 724 727 716 714 724 724 731 737 741 747 753 763 772 778 784 791 797 803 808 812 817 821 825 828 831 834 836 838 840 842 845 847 848 850 852 854 854 856 857 858 856 857 858
737 738 734 733 720 721 728 733 725 713 715 718 720 726 730 737 745 754 762 770 777 783 790 796 802 807 812 817 822 826 829 831 833 834 836 838 841 843 844 847 850 852 853 852 855 856 857 855 858
736 723 729 731 736 750 717 748 715 708 716 716 716 718 722 729 737 745 754 761 767 773 783 790 797 803 807 812 816 819 822 824 826 830 832 835 837 840 842 844 846 849 850 851 853 855 855 856 855
725 713 726 732 736 739 729 737 718 699 714 709 706 707 713 716 727 733 742 750 757 768 775 783 790 796 802 806 810 814 818 820 822 825 828 832 835 837 839 842 844 846 847 848 850 852 853 854 853
712 720 727 731 734 745 726 725 718 704 704 700 695 698 703 709 715 723 732 743 753 762 770 777 783 789 795 800 804 807 811 814 816 820 823 826 830 832 835 837 840 843 845 846 848 849 851 852 853
715 726 745 753 743 735 707 719 709 684 678 686 687 686 693 700 708 714 724 734 743 751 759 767 775 780 787 792 797 800 805 809 812 815 819 821 824 826 828 832 834 838 841 843 845 847 848 849 851
711 713 719 746 730 723 702 712 693 673 672 672 676 673 680 691 699 706 714 722 732 739 748 757 765 772 779 784 789 794 799 803 807 810 812 815 817 820 824 827 830 832 836 838 841 844 845 846 848
702 706 684 701 703 712 687 686 675 667 668 670 673 671 673 680 688 695 702 711 721 730 738 746 753 760 767 773 779 784 789 794 797 802 805 809 812 815 819 822 825 828 830 833 836 838 841 842 844
676 681 712 702 734 735 696 693 687 671 675 668 669 667 666 671 680 686 694 700 708 717 726 735 741 746 753 762 769 774 778 782 788 793 797 800 804 809 812 816 820 823 826 828 831 833 835 838 840
682 687 687 687 691 705 708 683 647 661 659 664 660 658 659 664 670 675 682 690 698 709 718 724 733 739 744 751 756 762 767 773 778 783 787 792 798 802 806 809 813 817 820 823 825 828 830 832 835
660 674 677 691 706 693 687 678 646 648 648 653 654 654 653 657 661 667 672 681 690 697 705 711 719 726 731 736 743 748 755 761 767 772 778 783 788 793 797 801 805 809 813 816 818 821 823 826 828